South Paris, Maine, United States (04281)
Lat: 44.22N, Lon: 70.51W
Wx Zone: MEZ012
Local Info
Past Weather Observations for Friday, May 1, 2015

NOTE: This archive is for the closest National Weather Service station to South Paris. Information may differ from the station used for current weather conditions.

Click here for Long-term Archive

Time Weather Temperature Dewpoint Humidity Pressure Winds Precip Visibility
23:55
Clear
36°F / 2°C 30°F / -1°C 81% 30.01 in
(1016 mb)
Calm - 10SM
23:35
Clear
36°F / 2°C 30°F / -1°C 81% 30.01 in
(1016 mb)
Calm - 10SM
23:15
Clear
36°F / 2°C 34°F / 1°C 93% 30.01 in
(1016 mb)
Calm - 10SM
22:55
Clear
36°F / 2°C 32°F / 0°C 87% 30.01 in
(1016 mb)
Calm - 10SM
22:35
Clear
37°F / 3°C 34°F / 1°C 87% 30.01 in
(1016 mb)
SSE 3.5 mph
(SSE 6 kph)
- 10SM
22:15
Clear
37°F / 3°C 34°F / 1°C 87% 30.01 in
(1016 mb)
SSE 4.6 mph
(SSE 7 kph)
- 10SM
21:55
Clear
39°F / 4°C 34°F / 1°C 81% 30.01 in
(1016 mb)
SSE 4.6 mph
(SSE 7 kph)
- 10SM
21:35
Clear
39°F / 4°C 34°F / 1°C 81% 30.01 in
(1016 mb)
SSE 3.5 mph
(SSE 6 kph)
- 10SM
21:15
Clear
39°F / 4°C 34°F / 1°C 81% 30.01 in
(1016 mb)
SSE 4.6 mph
(SSE 7 kph)
- 10SM
20:55
Clear
39°F / 4°C 34°F / 1°C 81% 30.01 in
(1016 mb)
SE 4.6 mph
(SE 7 kph)
- 10SM
20:35
Clear
39°F / 4°C 34°F / 1°C 81% 30.01 in
(1016 mb)
SE 4.6 mph
(SE 7 kph)
- 10SM
20:15
Clear
41°F / 5°C 34°F / 1°C 76% 30.01 in
(1016 mb)
SSE 5.8 mph
(SSE 9 kph)
- 10SM
19:55
Clear
41°F / 5°C 34°F / 1°C 76% 30.01 in
(1016 mb)
SSE 5.8 mph
(SSE 9 kph)
- 10SM
19:35
Clear
41°F / 5°C 34°F / 1°C 76% 29.98 in
(1015 mb)
SSE 6.9 mph
(SSE 11 kph)
- 10SM
19:15
Clear
43°F / 6°C 34°F / 1°C 71% 29.98 in
(1015 mb)
SSE 5.8 mph
(SSE 9 kph)
- 10SM
18:55
Clear
43°F / 6°C 32°F / 0°C 66% 29.98 in
(1015 mb)
SSE 8.1 mph
(SSE 13 kph)
- 10SM
18:35
Clear
45°F / 7°C 34°F / 1°C 66% 29.98 in
(1015 mb)
SSE 6.9 mph
(SSE 11 kph)
- 10SM
18:15
Clear
45°F / 7°C 34°F / 1°C 66% 29.98 in
(1015 mb)
S 12.7 mph
(S 20 kph)
- 10SM
17:55
Clear
45°F / 7°C 34°F / 1°C 66% 29.98 in
(1015 mb)
SSE 10.4 mph
(SSE 17 kph)
- 10SM
17:35
Clear
46°F / 8°C 34°F / 1°C 62% 29.98 in
(1015 mb)
S 10.4 mph
(S 17 kph)
- 10SM
17:15
Clear
48°F / 9°C 34°F / 1°C 58% 29.98 in
(1015 mb)
S 13.8 mph
(S 22 kph)
- 10SM
16:55
Clear
50°F / 10°C 36°F / 2°C 58% 29.95 in
(1014 mb)
SSE 12.7 mph
(SSE 20 kph)
- 10SM
16:35
Clear
52°F / 11°C 36°F / 2°C 54% 29.95 in
(1014 mb)
SSE 11.5 mph
(SSE 19 kph)
- 10SM
16:15
Clear
52°F / 11°C 36°F / 2°C 54% 29.95 in
(1014 mb)
SSE 12.7 mph
(SSE 20 kph)
- 10SM
15:55
Clear
54°F / 12°C 36°F / 2°C 51% 29.95 in
(1014 mb)
S 13.8 mph
(S 22 kph)
- 10SM
15:35
Mostly Cloudy
55°F / 13°C 37°F / 3°C 51% 29.95 in
(1014 mb)
SSE 15 mph
(SSE 24 kph)
- 10SM
15:15
Partly Cloudy
61°F / 16°C 36°F / 2°C 39% 29.95 in
(1014 mb)
S 13.8 mph
(S 22 kph)
- 10SM
14:55
Partly Cloudy
61°F / 16°C 36°F / 2°C 39% 29.95 in
(1014 mb)
ENE 9.2 mph
(ENE 15 kph)
- 10SM
14:35
Partly Cloudy
59°F / 15°C 36°F / 2°C 42% 29.95 in
(1014 mb)
E 8.1 mph
(E 13 kph)
- 10SM
14:15
Mostly Cloudy
57°F / 14°C 36°F / 2°C 44% 29.95 in
(1014 mb)
NE 5.8 mph
(NE 9 kph)
- 10SM
13:55
Partly Cloudy
59°F / 15°C 36°F / 2°C 42% 29.98 in
(1015 mb)
E 5.8 mph
(E 9 kph)
- 10SM
13:35
Clear
57°F / 14°C 36°F / 2°C 44% 29.98 in
(1015 mb)
NE 6.9 mph
(NE 11 kph)
- 10SM
13:15
Partly Cloudy
57°F / 14°C 36°F / 2°C 44% 29.98 in
(1015 mb)
NE 6.9 mph
(NE 11 kph)
- 10SM
12:55
Mostly Cloudy
55°F / 13°C 36°F / 2°C 47% 29.98 in
(1015 mb)
NE 8.1 mph
(NE 13 kph)
- 10SM
12:35
Mostly Cloudy
55°F / 13°C 34°F / 1°C 44% 29.98 in
(1015 mb)
NE 9.2 mph
(NE 15 kph)
- 10SM
12:15
Mostly Cloudy
55°F / 13°C 34°F / 1°C 44% 29.98 in
(1015 mb)
Calm - 10SM
11:55
Mostly Cloudy
54°F / 12°C 34°F / 1°C 47% 29.98 in
(1015 mb)
NNW 3.5 mph
(NNW 6 kph)
- 10SM
11:35
Overcast
54°F / 12°C 34°F / 1°C 47% 30.01 in
(1016 mb)
ENE 5.8 mph
(ENE 9 kph)
- 10SM
11:15
Overcast
52°F / 11°C 36°F / 2°C 54% 30.01 in
(1016 mb)
N 4.6 mph
(N 7 kph)
- 10SM
10:55
Overcast
52°F / 11°C 34°F / 1°C 50% 30.01 in
(1016 mb)
NE 5.8 mph
(NE 9 kph)
- 10SM
10:35
Overcast
50°F / 10°C 32°F / 0°C 50% 30.01 in
(1016 mb)
ESE 4.6 mph
(ESE 7 kph)
- 10SM
10:15
Overcast
50°F / 10°C 34°F / 1°C 54% 30.01 in
(1016 mb)
NE 10.4 mph
(NE 17 kph)
- 10SM
09:55
Overcast
48°F / 9°C 32°F / 0°C 54% 30.04 in
(1017 mb)
NNE 11.5 mph
(NNE 19 kph)
- 10SM
09:35
Overcast
48°F / 9°C 32°F / 0°C 54% 30.04 in
(1017 mb)
N 5.8 mph
(N 9 kph)
- 10SM
09:15
Overcast
48°F / 9°C 30°F / -1°C 50% 30.04 in
(1017 mb)
NE 6.9 mph
(NE 11 kph)
- 10SM
08:55
Overcast
48°F / 9°C 34°F / 1°C 58% 30.04 in
(1017 mb)
NE 5.8 mph
(NE 9 kph)
- 10SM
08:35
Overcast
46°F / 8°C 32°F / 0°C 57% 30.04 in
(1017 mb)
N 9.2 mph
(N 15 kph)
- 10SM
08:15
Overcast
46°F / 8°C 34°F / 1°C 62% 30.04 in
(1017 mb)
N 9.2 mph
(N 15 kph)
- 10SM
07:55
Overcast
46°F / 8°C 34°F / 1°C 62% 30.04 in
(1017 mb)
NNE 5.8 mph
(NNE 9 kph)
- 10SM
07:35
Overcast
45°F / 7°C 34°F / 1°C 66% 30.04 in
(1017 mb)
NNE 8.1 mph
(NNE 13 kph)
- 10SM
07:15
Overcast
45°F / 7°C 34°F / 1°C 66% 30.04 in
(1017 mb)
NE 9.2 mph
(NE 15 kph)
- 10SM
06:55
Overcast
45°F / 7°C 34°F / 1°C 66% 30.04 in
(1017 mb)
NNE 8.1 mph
(NNE 13 kph)
- 10SM
06:35
Overcast
45°F / 7°C 34°F / 1°C 66% 30.01 in
(1016 mb)
NE 5.8 mph
(NE 9 kph)
- 10SM
06:15
Overcast
45°F / 7°C 34°F / 1°C 66% 30.01 in
(1016 mb)
NE 8.1 mph
(NE 13 kph)
- 10SM
05:55
Overcast
45°F / 7°C 34°F / 1°C 66% 30.01 in
(1016 mb)
NE 8.1 mph
(NE 13 kph)
- 10SM
05:35
Overcast
45°F / 7°C 34°F / 1°C 66% 30.01 in
(1016 mb)
NNE 6.9 mph
(NNE 11 kph)
- 10SM
05:15
Overcast
45°F / 7°C 34°F / 1°C 66% 30.01 in
(1016 mb)
NE 9.2 mph
(NE 15 kph)
- 10SM
04:55
Overcast
45°F / 7°C 34°F / 1°C 66% 30.01 in
(1016 mb)
NE 5.8 mph
(NE 9 kph)
- 10SM
04:35
Overcast
45°F / 7°C 34°F / 1°C 66% 29.98 in
(1015 mb)
NE 5.8 mph
(NE 9 kph)
- 10SM
04:15
Overcast
45°F / 7°C 34°F / 1°C 66% 29.98 in
(1015 mb)
NE 8.1 mph
(NE 13 kph)
- 10SM
03:55
Overcast
45°F / 7°C 36°F / 2°C 71% 29.98 in
(1015 mb)
NE 3.5 mph
(NE 6 kph)
- 10SM
03:35
Overcast
43°F / 6°C 36°F / 2°C 76% 29.98 in
(1015 mb)
NE 3.5 mph
(NE 6 kph)
- 10SM
03:15
Overcast
43°F / 6°C 37°F / 3°C 81% 29.98 in
(1015 mb)
Calm - 10SM
02:55
Overcast
43°F / 6°C 37°F / 3°C 81% 29.98 in
(1015 mb)
Calm - 10SM
02:35
Overcast
43°F / 6°C 37°F / 3°C 81% 29.98 in
(1015 mb)
N 3.5 mph
(N 6 kph)
- 10SM
02:15
Overcast
43°F / 6°C 37°F / 3°C 81% 29.98 in
(1015 mb)
Calm - 10SM
01:55
Overcast
43°F / 6°C 36°F / 2°C 76% 29.98 in
(1015 mb)
Calm - 10SM
01:35
Overcast
43°F / 6°C 36°F / 2°C 76% 29.98 in
(1015 mb)
Calm - 10SM
01:15
Overcast
43°F / 6°C 36°F / 2°C 76% 29.98 in
(1015 mb)
Calm - 10SM
00:55
Overcast
43°F / 6°C 36°F / 2°C 76% 29.98 in
(1015 mb)
Calm - 10SM
00:35
Overcast
43°F / 6°C 36°F / 2°C 76% 29.98 in
(1015 mb)
Calm - 10SM
00:15
Overcast
43°F / 6°C 36°F / 2°C 76% 30.01 in
(1016 mb)
Calm - 10SM
Time Weather Temperature Dewpoint Humidity Pressure Winds Precip Visibility


Weather for websites

WeatherForYou.com, LLC is not responsible for any damages or problems caused by this service. Current weather conditions are obtained from the closest station including government and personal stations which may have varying degrees of accuracy. Weather forecasts are derived from the NOAA NDFD. Like all things, this site belongs to Jesus Christ... He just trusts us to maintain it. If you have any questions or comments email webmaster@weatherforyou.com

Copyright © 2015, WeatherForYou.com LLC. All rights reserved.